When you browse on this site, cookies collect data to enhance your experience and personalize the content and advertising you see.
Visit our Privacy Policy to learn more. By continuing to use the site, you agree to this use of cookies and data.
  • In Switzerland
  • List of Countries
  • For 7 days
  • Water Temperature
  • Satellite Maps
  • Weather Map
  • Weather Widgets
  • user-avatar
    Login

    Hourly Weather Salzburg

    Today, 21 March, Thursday

    Time Temperature Precipitation Wind Pressure Humidity
    00:00 -9°C° 0 mm 1 mps 632 mmHg 87%
    01:00 -12°C° 0 mm 2 mps 631 mmHg 86%
    02:00 -12°C° 0 mm 2 mps 631 mmHg 84%
    03:00 -12°C° 0 mm 2 mps 631 mmHg 81%
    04:00 -12°C° 0 mm 2 mps 631 mmHg 79%
    05:00 -10°C° 0 mm 2 mps 631 mmHg 77%
    06:00 -10°C° 0 mm 2 mps 631 mmHg 75%
    07:00 -9°C° 0 mm 2 mps 632 mmHg 72%
    08:00 -6°C° 0 mm 2 mps 633 mmHg 73%
    09:00 -1°C° 0 mm 1 mps 634 mmHg 75%
    10:00 +2°C° 0 mm 1 mps 634 mmHg 76%
    11:00 +3°C° 0 mm 1 mps 634 mmHg 76%
    12:00 +4°C° 0 mm 1 mps 634 mmHg 76%
    13:00 +6°C° 0 mm 1 mps 634 mmHg 76%
    14:00 +6°C° 0 mm 1 mps 634 mmHg 78%
    15:00 +6°C° 0 mm 1 mps 634 mmHg 80%
    16:00 +6°C° 0 mm 1 mps 634 mmHg 82%
    17:00 +4°C° 0 mm 1 mps 633 mmHg 82%
    18:00 +1°C° 0 mm 1 mps 632 mmHg 83%
    19:00 -1°C° 0 mm 1 mps 632 mmHg 84%
    20:00 -1°C° 0 mm 1 mps 632 mmHg 81%
    21:00 -4°C° 0 mm 2 mps 632 mmHg 79%
    22:00 -5°C° 0 mm 2 mps 632 mmHg 77%
    23:00 -5°C° 0 mm 2 mps 632 mmHg 74%

    Tomorrow, 22 March, Friday

    Time Temperature Precipitation Wind Pressure Humidity
    00:00 -5°C° 0 mm 2 mps 632 mmHg 71%
    01:00 -5°C° 0 mm 2 mps 632 mmHg 68%
    02:00 -5°C° 0 mm 2 mps 632 mmHg 67%
    03:00 -5°C° 0 mm 2 mps 631 mmHg 66%
    04:00 -5°C° 0 mm 2 mps 631 mmHg 65%
    05:00 -5°C° 0 mm 2 mps 631 mmHg 65%
    06:00 -4°C° 0 mm 2 mps 632 mmHg 65%
    07:00 -4°C° 0 mm 2 mps 632 mmHg 66%
    08:00 +1°C° 0 mm 1 mps 633 mmHg 69%
    09:00 +4°C° 0 mm 1 mps 633 mmHg 73%
    10:00 +6°C° 0 mm 0 mps 634 mmHg 76%
    11:00 +8°C° 0 mm 1 mps 634 mmHg 75%
    12:00 +9°C° 0 mm 1 mps 634 mmHg 74%
    13:00 +10°C° 0 mm 1 mps 635 mmHg 73%
    14:00 +9°C° 0 mm 1 mps 634 mmHg 75%
    15:00 +9°C° 0 mm 1 mps 634 mmHg 78%
    16:00 +8°C° 0 mm 1 mps 633 mmHg 80%
    17:00 +6°C° 0 mm 1 mps 633 mmHg 82%
    18:00 +4°C° 0 mm 1 mps 632 mmHg 84%
    19:00 +2°C° 0 mm 1 mps 631 mmHg 86%
    20:00 +1°C° 0 mm 1 mps 631 mmHg 85%
    21:00 -1°C° 0 mm 2 mps 631 mmHg 84%
    22:00 -2°C° 0 mm 2 mps 631 mmHg 83%
    23:00 -2°C° 0 mm 2 mps 631 mmHg 81%

    Day after tomorrow, 23 March, Saturday

    Time Temperature Precipitation Wind Pressure Humidity
    00:00 -2°C° 0 mm 2 mps 631 mmHg 79%
    01:00 -3°C° 0 mm 2 mps 631 mmHg 77%
    02:00 -3°C° 0 mm 2 mps 631 mmHg 77%
    03:00 -3°C° 0 mm 2 mps 630 mmHg 76%
    04:00 -1°C° 0 mm 1 mps 630 mmHg 76%
    05:00 -1°C° 0 mm 1 mps 630 mmHg 76%
    06:00 -1°C° 0 mm 1 mps 630 mmHg 76%
    07:00 0°C° 0 mm 1 mps 631 mmHg 77%
    08:00 +2°C° 0 mm 1 mps 631 mmHg 75%
    09:00 +5°C° 0 mm 1 mps 632 mmHg 74%
    10:00 +7°C° 0 mm 1 mps 633 mmHg 73%
    11:00 +8°C° 0 mm 1 mps 633 mmHg 71%
    12:00 +9°C° 0 mm 1 mps 633 mmHg 69%
    13:00 +10°C° 0 mm 1 mps 633 mmHg 67%
    14:00 +9°C° 0 mm 1 mps 632 mmHg 69%
    15:00 +9°C° 0 mm 1 mps 632 mmHg 71%
    16:00 +9°C° 0 mm 1 mps 632 mmHg 73%
    17:00 +7°C° 0 mm 1 mps 631 mmHg 78%
    18:00 +3°C° 0 mm 0 mps 630 mmHg 84%
    19:00 +1°C° 0 mm 0 mps 629 mmHg 90%
    20:00 0°C° 0 mm 0 mps 630 mmHg 90%
    21:00 +1°C° 0 mm 1 mps 630 mmHg 91%
    22:00 +1°C° 0 mm 1 mps 630 mmHg 91%
    23:00 +1°C° 0 mm 1 mps 630 mmHg 91%

    24 March, Sunday

    Time Temperature Precipitation Wind Pressure Humidity
    00:00 0°C° 0 mm 1 mps 630 mmHg 91%
    01:00 0°C° 0 mm 1 mps 630 mmHg 90%
    02:00 0°C° 0 mm 1 mps 629 mmHg 89%
    03:00 0°C° 0 mm 1 mps 629 mmHg 88%
    04:00 0°C° 0 mm 1 mps 629 mmHg 87%
    05:00 0°C° 0 mm 1 mps 629 mmHg 86%
    06:00 0°C° 0 mm 1 mps 629 mmHg 84%
    07:00 +1°C° 0 mm 1 mps 629 mmHg 83%
    08:00 +3°C° 0 mm 1 mps 630 mmHg 78%
    09:00 +6°C° 0 mm 1 mps 631 mmHg 74%
    10:00 +7°C° 0 mm 0 mps 631 mmHg 69%
    11:00 +9°C° 0 mm 1 mps 631 mmHg 68%
    12:00 +9°C° 0 mm 1 mps 631 mmHg 67%
    13:00 +10°C° 0 mm 1 mps 631 mmHg 66%
    14:00 +9°C° 0.1 mm 1 mps 630 mmHg 71%
    15:00 +9°C° 0.1 mm 1 mps 630 mmHg 76%
    16:00 +8°C° 0.1 mm 1 mps 629 mmHg 81%
    17:00 +6°C° 0.1 mm 1 mps 629 mmHg 86%
    18:00 +5°C° 0.1 mm 1 mps 629 mmHg 91%
    19:00 +3°C° 0.1 mm 1 mps 628 mmHg 96%
    20:00 +3°C° 0.2 mm 1 mps 629 mmHg 96%
    21:00 +3°C° 0.2 mm 1 mps 629 mmHg 96%
    22:00 +3°C° 0.2 mm 1 mps 629 mmHg 96%
    23:00 +2°C° 0.4 mm 1 mps 629 mmHg 97%

    25 March, Monday

    Time Temperature Precipitation Wind Pressure Humidity
    00:00 +2°C° 0.4 mm 1 mps 629 mmHg 97%
    01:00 +2°C° 0.4 mm 1 mps 629 mmHg 98%
    02:00 +1°C° 0.2 mm 1 mps 629 mmHg 98%
    03:00 +1°C° 0.2 mm 1 mps 629 mmHg 98%
    04:00 +1°C° 0.2 mm 1 mps 629 mmHg 98%
    05:00 +1°C° 0.6 mm 1 mps 629 mmHg 98%
    06:00 +1°C° 0.6 mm 1 mps 629 mmHg 97%
    07:00 +1°C° 0.6 mm 1 mps 629 mmHg 97%
    08:00 +1°C° 0.6 mm 1 mps 629 mmHg 96%
    09:00 -1°C° 0.6 mm 2 mps 629 mmHg 95%
    10:00 -1°C° 0.6 mm 2 mps 629 mmHg 94%
    11:00 -1°C° 0.2 mm 2 mps 629 mmHg 91%
    12:00 -1°C° 0.2 mm 2 mps 629 mmHg 89%
    13:00 +1°C° 0.2 mm 2 mps 629 mmHg 86%
    14:00 +1°C° 0.2 mm 2 mps 629 mmHg 86%
    15:00 +1°C° 0.2 mm 2 mps 629 mmHg 85%
    16:00 -1°C° 0.2 mm 2 mps 628 mmHg 84%
    17:00 -1°C° 0.2 mm 2 mps 629 mmHg 87%
    18:00 0°C° 0.2 mm 1 mps 629 mmHg 90%
    19:00 -1°C° 0.2 mm 1 mps 629 mmHg 93%
    20:00 -1°C° 0.2 mm 1 mps 629 mmHg 93%
    21:00 -2°C° 0.2 mm 1 mps 629 mmHg 93%
    22:00 -2°C° 0.2 mm 1 mps 629 mmHg 93%
    23:00 -2°C° 0.2 mm 1 mps 629 mmHg 94%

    26 March, Tuesday

    Time Temperature Precipitation Wind Pressure Humidity
    00:00 -3°C° 0.2 mm 1 mps 629 mmHg 94%
    01:00 -5°C° 0.2 mm 2 mps 629 mmHg 94%
    02:00 -3°C° 0.3 mm 1 mps 629 mmHg 94%
    03:00 -3°C° 0.3 mm 1 mps 629 mmHg 94%
    04:00 -3°C° 0.3 mm 1 mps 629 mmHg 94%
    05:00 -3°C° 0.2 mm 1 mps 629 mmHg 93%
    06:00 -3°C° 0.2 mm 1 mps 629 mmHg 92%
    07:00 -3°C° 0.2 mm 1 mps 629 mmHg 92%
    08:00 -4°C° 0.2 mm 2 mps 629 mmHg 87%
    09:00 -3°C° 0.2 mm 2 mps 629 mmHg 82%
    10:00 -3°C° 0.2 mm 2 mps 629 mmHg 77%
    11:00 -2°C° 0.4 mm 2 mps 629 mmHg 78%
    12:00 -2°C° 0.4 mm 3 mps 629 mmHg 79%
    13:00 -2°C° 0.4 mm 3 mps 629 mmHg 79%
    14:00 -2°C° 0.5 mm 3 mps 629 mmHg 81%
    15:00 -2°C° 0.5 mm 3 mps 628 mmHg 82%
    16:00 -2°C° 0.5 mm 3 mps 628 mmHg 83%
    17:00 -3°C° 0.7 mm 2 mps 629 mmHg 87%
    18:00 -3°C° 0.7 mm 2 mps 629 mmHg 90%
    19:00 -4°C° 0.7 mm 2 mps 629 mmHg 93%
    20:00 -4°C° 0.5 mm 2 mps 630 mmHg 94%
    21:00 -4°C° 0.5 mm 2 mps 630 mmHg 95%
    22:00 -2°C° 0.5 mm 1 mps 630 mmHg 96%
    23:00 -2°C° 0.5 mm 1 mps 630 mmHg 95%
    Show more